CAPE
1217 1228 1337 1538 903 1159 1253 1246 1578 2472 2101 1916 2353 2242 2447 1762 1583 1704 1861 2160 2220 1637
1225 1245 1161 1232 1449 1360 1633 1381 1885 2286 2153 2212 2282 2436 2289 1744 1945 1920 2007 1930 2087 1996
1181 1358 1496 1441 1573 1342 1482 1717 1923 2378 2374 2550 2548 2352 2493 1941 1937 1994 1876 1454 1885 2052
1052 1262 1610 1574 1730 1660 1598 2038 2252 2479 2398 2516 2621 2468 2789 2844 2081 2132 2081 1719 1922 1647
1262 1212 1346 1394 1431 1676 1770 1785 2137 2379 2400 2606 2374 2337 2550 2570 1786 1928 2132 1938 1821 1790
1466 1292 1009 1274 1371 1388 1651 1780 1724 2301 2578 2464 2445 2525 2613 2570 2086 2005 1903 2024 2011 1786
1590 1345 1171 968 1148 1184 1516 1727 1752 2104 2430 2533 2697 2089 2277 2366 2398 2408 2138 2112 2198 2148
1955 1731 1446 1488 1450 1224 1400 1736 1796 1989 2315 2498 2312 1639 1903 2142 2345 2381 2140 2115 2417 2068
2622 2488 2444 2412 2166 2117 1747 2185 1969 1885 1912 1998 1693 803 489 861 2149 2316 2400 2214 2167 2117
2502 2391 2442 2219 2534 2036 2189 2281 2101 1929 1904 1896 1924 927 573 408 1040 1824 2187 2261 2157 1996
2681 2450 2368 2398 2492 2761 2307 2178 2254 1931 2454 2282 2184 1306 915 563 1333 1445 1760 2115 2001 2278
2541 2665 2469 2458 2683 2686 2448 2431 2159 2215 2491 2679 2293 1155 1077 1138 1646 1748 2419 2688 2188 2295
2891 2632 2770 2609 2889 3047 2667 2718 2484 2491 2525 2272 2659 1883 1687 1343 1486 1378 1685 3179 3148 1551
2406 2779 2548 2916 2939 2862 2778 3176 2711 3039 2945 3141 2698 2761 1642 891 1097 751 414 1762 3011 3060
CIN
-0 -0 -0 -0 -0 -0 -0 -0 -0 -0 -0 -0 -0 -0 -0 -0 -0 -0 -0 -0 -0 -0
-1 -0 -0 -0 -0 -0 -0 -0 -0 -0 -0 -0 -0 -0 -0 -0 -0 -0 -0 -0 -0 -0
-4 -0 -0 -0 -0 -0 -0 -0 -0 -0 -0 -0 -0 -0 -0 -0 -0 -0 -0 -0 -2 -0
-28 -0 -0 -0 -0 -0 -0 -0 -0 -2 -2 -0 -0 -0 -0 -0 -0 -0 -0 -0 -0 -0
-33 -12 -0 -0 -0 -0 -0 -0 -0 -0 -3 -0 -0 -0 -0 -0 -0 -0 -0 -0 -0 -0
-29 -17 -14 -1 -0 -0 -0 -0 -0 -0 -0 -0 -0 -1 -2 -3 -0 -0 -0 -0 -0 -0
-45 -36 -21 -16 -11 -6 -1 -0 -0 -0 -0 -0 -0 -0 -0 -0 -7 -0 -0 -0 -0 -0
-45 -30 -30 -9 -6 -22 -7 -0 -0 -0 -0 -0 -0 -0 -0 -0 -0 -0 -0 -0 -0 -0
-19 -16 -10 -7 -8 -1 -11 -1 -2 -1 -0 -0 -0 -1 -25 -38 -0 -0 -0 -0 -0 -0
-27 -27 -22 -22 -4 -23 -6 -3 -5 -6 -3 -3 -1 -28 -41 -74 -8 -0 -0 -0 -0 -0
-19 -34 -29 -22 -17 -10 -23 -15 -7 -16 -1 -4 -9 -40 -51 -73 -19 -0 -0 -0 -0 -0
-10 -17 -26 -21 -16 -17 -20 -27 -32 -21 -5 -3 -15 -77 -82 -60 -12 -1 -0 -0 -0 -0
-0 -3 -5 -13 -8 -4 -11 -13 -18 -17 -9 -15 -6 -46 -56 -59 -5 -0 -0 -0 -0 -11
-0 -0 -1 -0 -3 -3 -4 -0 -8 -7 -16 -4 -6 -12 -52 -45 -32 -3 -2 -0 -0 -1
Wind_Speed
9 6 9 8 9 11 10 12 15 12 12 8 8 9 12 13 8 8 8 11 12 10
11 6 7 9 10 10 10 14 16 12 12 12 9 7 11 11 9 8 7 10 11 7
13 12 7 9 9 10 14 12 17 14 13 11 10 8 10 11 7 7 7 8 9 8
14 12 11 8 9 10 10 14 14 14 14 12 12 11 11 9 10 7 6 10 7 5
13 10 12 9 9 9 10 13 14 13 11 12 14 13 13 11 11 9 7 6 7 7
12 11 9 11 7 8 8 7 10 10 10 16 14 12 13 12 12 10 10 9 8 7
10 11 10 11 8 6 7 7 9 9 9 12 17 13 13 12 14 13 12 11 13 10
17 11 7 10 10 8 8 7 9 8 8 9 14 14 12 13 14 16 14 13 14 12
18 18 13 10 13 14 12 10 9 6 7 9 13 15 18 16 16 16 17 16 16 14
14 15 18 15 12 12 13 14 11 9 5 5 10 17 21 19 14 15 15 18 18 18
12 16 16 18 15 13 14 13 13 12 9 8 9 16 19 22 15 13 13 16 18 19
17 15 17 15 17 16 15 15 14 13 10 9 9 18 20 22 14 14 14 18 18 19
26 16 13 15 17 20 17 15 18 14 12 11 10 16 19 20 14 13 19 23 22 23
37 27 18 18 19 19 19 17 16 14 13 13 10 9 20 19 16 16 23 28 33 29
Wind_Direction
347 311 273 296 268 265 241 233 237 223 222 228 240 226 224 202 186 235 207 200 196 199
335 352 302 281 258 263 248 236 236 222 225 230 238 233 198 189 196 215 203 222 209 198
336 330 316 276 258 254 262 221 238 234 228 225 238 233 228 235 233 210 194 214 215 212
331 327 324 306 277 248 240 245 248 260 240 216 235 238 252 244 224 237 202 190 210 214
330 324 319 323 305 279 252 251 242 263 256 231 234 231 243 245 240 249 237 222 203 212
332 318 315 312 322 298 278 250 243 259 245 212 222 236 235 246 244 241 239 245 244 233
313 321 305 300 313 313 287 270 267 250 271 224 214 230 230 239 259 255 249 239 248 246
301 302 303 284 285 291 287 266 268 270 260 251 206 221 250 247 253 266 262 256 257 251
311 296 287 269 272 272 280 269 264 272 256 250 234 232 246 240 243 256 263 259 262 255
306 309 296 279 273 279 267 268 266 252 245 239 238 238 252 261 239 247 259 255 252 251
291 299 292 288 279 261 264 263 257 262 254 245 242 255 262 263 253 243 240 248 246 250
248 277 285 284 278 262 254 255 261 256 261 261 257 268 276 270 259 261 256 253 250 254
235 241 264 273 278 268 254 244 247 256 259 260 255 274 278 277 253 252 252 258 257 261
223 220 226 244 258 267 260 240 244 243 254 254 275 261 282 279 264 253 254 252 246 247